Погода в Красноярке

Россия / Омская область     55°19′36″N   73°05′31″E
темп.,
°C
ветер,
м/с
пор.,
м/с
влажн.,
%
обл.,
%
осадки,
мм/ч
давл.,
гПа
погр.,
м
11 апреля, вс
вс1100:000вюв239239 0.0 104259
03:00−2вюв239638 0.0 104254
06:00−2юв239752 0.0 104346
09:000ююв349292 0.0 1043340
12:00+1ю339695 0.0 1043374
15:00+3юз238851 0.0 1042416
18:00+3юз23895 0.0 1041215
21:000ююз3594100 0.0 104075
12 апреля, пн
пн1200:000ююз3895100 0.0 1038147
03:00−1юз3993100 0.0 1037171
06:00−1юз499277 0.0 1036190
09:00+2зюз4108255 0.0 1035244
12:00+6зюз5865100 0.0 1034330
15:00+7з5865100 0.0 1033438
18:00+5з3788100 0.1 1033168
21:00+3сз3996100 0.3 1034181
13 апреля, вт
вт1300:00+2ссз3496100 0.3 103567
03:00+2с368873 0.0 103689
06:000ссз33855 0.0 103826
09:00+3сз34821 0.0 1039218
12:00+7сз46524 0.0 1039630
15:00+9сз56490 0.0 10391024
18:00+9зсз48565 0.0 10381035
21:00+5з367422 0.0 1038110
14 апреля, ср
ср1400:00+4з34775 0.0 103861
03:00+3з35805 0.0 103778
06:00+2зюз478374 0.0 1036112
09:00+5зюз51075100 0.0 1035304
12:00+10зюз61057100 0.0 1033618
15:00+12зюз7951100 0.0 1030822
18:00+12зюз6115776 0.0 1028722
21:00+8з3107314 0.0 1028199
15 апреля, чт
чт1500:00+7з49805 0.0 1026159
03:00+6з35884 0.0 102584
06:00+6з34903 0.0 102456
09:00+10з46815 0.0 1024220
12:00+15з56675 0.0 1022679
15:00+17з68555 0.0 10201373
18:00+17з68565 0.1 10191566
21:00+13зюз497445 0.0 1018147